This is the latest recevied weather packets stored in our database for station/object DK4MDA-13. If no packets are shown the sender has not sent any weather packets the latest 10 day(s).
| Time | Temp. | Humidity | Pressure | Rain* | Wind** | Luminosity | Snow |
|---|---|---|---|---|---|---|---|
| 1777625836 | 20° C | 41% | 1030.1 hPa | 0 mm | - | - | - |
| 1777625536 | 20° C | 43% | 1030.1 hPa | 0 mm | - | - | - |
| 1777625236 | 20° C | 43% | 1030.1 hPa | 0 mm | - | - | - |
| 1777624936 | 20° C | 44% | 1030.1 hPa | 0 mm | - | - | - |
| 1777624636 | 19.44° C | 46% | 1030.2 hPa | 0 mm | - | - | - |
| 1777624336 | 19.44° C | 48% | 1030.1 hPa | 0 mm | - | - | - |
| 1777624036 | 19.44° C | 47% | 1029.9 hPa | 0 mm | - | - | - |
| 1777623736 | 18.89° C | 46% | 1030.1 hPa | 0 mm | - | - | - |
| 1777623436 | 18.89° C | 48% | 1030.1 hPa | 0 mm | - | - | - |
| 1777623136 | 18.89° C | 48% | 1030 hPa | 0 mm | - | - | - |
| 1777622836 | 18.33° C | 50% | 1030.1 hPa | 0 mm | - | - | - |
| 1777622536 | 18.33° C | 50% | 1030.2 hPa | 0 mm | - | - | - |
| 1777622236 | 17.78° C | 50% | 1030.1 hPa | 0 mm | - | - | - |
| 1777621936 | 17.78° C | 51% | 1030.2 hPa | 0 mm | - | - | - |
| 1777621636 | 17.78° C | 51% | 1030.1 hPa | 0 mm | - | - | - |
| 1777621336 | 17.22° C | 54% | 1030 hPa | 0 mm | - | - | - |
| 1777621036 | 16.67° C | 53% | 1030.1 hPa | 0 mm | - | - | - |
| 1777620736 | 16.67° C | 54% | 1030.1 hPa | 0 mm | - | - | - |
| 1777620436 | 16.11° C | 57% | 1030.1 hPa | 0 mm | - | - | - |
| 1777620136 | 15.56° C | 57% | 1030.1 hPa | 0 mm | - | - | - |
| 1777619836 | 15.56° C | 57% | 1030.2 hPa | 0 mm | - | - | - |
| 1777619536 | 15° C | 58% | 1030.2 hPa | 0 mm | - | - | - |
| 1777619236 | 14.44° C | 60% | 1030.2 hPa | 0 mm | - | - | - |
| 1777618936 | 13.89° C | 61% | 1030.1 hPa | 0 mm | - | - | - |
| 1777618636 | 13.33° C | 62% | 1030.1 hPa | 0 mm | - | - | - |
* Rain latest hour (hover to see other rain measurements)
** Current wind speed in m/s (hover to see current wind gust speed)